カタログに戻る

STARLINK-30164

運用中通信VLEO
NORAD 57500·PAYLOAD·🇺🇸 United States

打ち上げ Aug 7, 2023 から Cape Canaveral Space Force Station

Loading…

次のパス (今後24時間)

TLE

最新Source: CelesTrak SupGP

元期: Sep 15, 2026, 02:56 UTC

1 57500C 23113F   26258.12270833 -.00037308  00000+0 -13514-2 0  2582
2 57500  43.0019  26.2490 0001608 268.0172 195.7327 15.27595409    12

AllMySatでSTARLINK-30164をリアルタイム追跡

Download on the App Store